| time (UTC) | temp C | wind direction | speed KPH | gust KPH | rain 1hr cm | rain 24hr cm | rain mn cm | humidity % | barometer mb |
| 20260509135556 | 22 | 355 | 1.6 | 8.0 | 0.00 | 0.00 | 0.00 | 83 | 1011.1 |
| 20260509135056 | 22 | 0 | 0.0 | 6.4 | 0.00 | 0.00 | 0.00 | 84 | 1011.0 |
| 20260509134554 | 22 | 289 | 1.6 | 6.4 | 0.00 | 0.00 | 0.00 | 85 | 1011.0 |
| 20260509134054 | 21 | 346 | 1.6 | 6.4 | 0.00 | 0.00 | 0.00 | 86 | 1010.9 |
| 20260509133558 | 21 | 286 | 1.6 | 6.4 | 0.00 | 0.00 | 0.00 | 86 | 1010.9 |
| 20260509133053 | 21 | 0 | 0.0 | 6.4 | 0.00 | 0.00 | 0.00 | 87 | 1010.9 |
| 20260509132555 | 21 | 0 | 1.6 | 6.4 | 0.00 | 0.00 | 0.00 | 88 | 1010.8 |
| 20260509132058 | 21 | 0 | 0.0 | 11.3 | 0.00 | 0.00 | 0.00 | 88 | 1010.8 |
| 20260509131557 | 20 | 264 | 4.8 | 11.3 | 0.00 | 0.00 | 0.00 | 89 | 1010.9 |
| 20260509131054 | 20 | 266 | 1.6 | 6.4 | 0.00 | 0.00 | 0.00 | 90 | 1010.8 |
| 20260509130556 | 20 | 0 | 0.0 | 6.4 | 0.00 | 0.00 | 0.00 | 90 | 1010.8 |
| 20260509130106 | 20 | 292 | 1.6 | 6.4 | 0.00 | 0.00 | 0.00 | 90 | 1010.9 |
| 20260509125556 | 20 | 0 | 1.6 | 6.4 | 0.00 | 0.00 | 0.00 | 90 | 1010.9 |
| 20260509125055 | 20 | 267 | 1.6 | 6.4 | 0.00 | 0.00 | 0.00 | 90 | 1010.9 |
| 20260509124558 | 20 | 0 | 1.6 | 6.4 | 0.00 | 0.00 | 0.00 | 90 | 1010.8 |
| 20260509124058 | 20 | 274 | 0.0 | 6.4 | 0.00 | 0.00 | 0.00 | 90 | 1010.7 |
| 20260509123555 | 20 | 262 | 0.0 | 6.4 | 0.00 | 0.00 | 0.00 | 90 | 1010.7 |
| 20260509123058 | 20 | 285 | 1.6 | 6.4 | 0.00 | 0.00 | 0.00 | 90 | 1010.8 |
| 20260509122554 | 20 | 283 | 0.0 | 6.4 | 0.00 | 0.00 | 0.00 | 90 | 1010.6 |
| 20260509122054 | 19 | 0 | 3.2 | 6.4 | 0.00 | 0.00 | 0.00 | 90 | 1010.7 |
| 20260509121625 | 20 | 281 | 1.6 | 6.4 | 0.00 | 0.00 | 0.00 | 90 | 1010.7 |
| 20260509121055 | 20 | 279 | 1.6 | 6.4 | 0.00 | 0.00 | 0.00 | 90 | 1010.7 |
| 20260509120557 | 20 | 281 | 1.6 | 6.4 | 0.00 | 0.00 | 0.00 | 90 | 1010.7 |
| 20260509120110 | 20 | 274 | 1.6 | 9.7 | 0.00 | 0.00 | 0.00 | 90 | 1010.5 |
| 20260509115554 | 20 | 277 | 1.6 | 9.7 | 0.00 | 0.28 | 0.00 | 90 | 1010.5 |
| 20260509115054 | 20 | 0 | 1.6 | 9.7 | 0.00 | 0.28 | 0.00 | 90 | 1010.5 |
| 20260509114604 | 20 | 268 | 1.6 | 9.7 | 0.00 | 0.28 | 0.00 | 90 | 1010.4 |
| 20260509114054 | 20 | 287 | 3.2 | 6.4 | 0.00 | 0.28 | 0.00 | 90 | 1010.5 |
| 20260509113553 | 20 | 296 | 1.6 | 6.4 | 0.00 | 0.28 | 0.00 | 90 | 1010.3 |
| 20260509113108 | 19 | 306 | 1.6 | 4.8 | 0.00 | 0.28 | 0.00 | 90 | 1010.3 |
| 20260509112555 | 19 | 306 | 0.0 | 3.2 | 0.00 | 0.28 | 0.00 | 90 | 1010.2 |
| 20260509112055 | 19 | 288 | 0.0 | 9.7 | 0.00 | 0.28 | 0.00 | 89 | 1009.9 |
| 20260509111606 | 19 | 0 | 1.6 | 9.7 | 0.00 | 0.28 | 0.00 | 89 | 1010.0 |
| 20260509111054 | 19 | 288 | 0.0 | 4.8 | 0.00 | 0.28 | 0.00 | 89 | 1010.0 |
| 20260509110558 | 19 | 289 | 1.6 | 4.8 | 0.00 | 0.28 | 0.00 | 89 | 1009.9 |
| 20260509110109 | 19 | 0 | 0.0 | 6.4 | 0.00 | 0.28 | 0.00 | 89 | 1009.8 |
| 20260509105554 | 19 | 0 | 1.6 | 6.4 | 0.00 | 0.38 | 0.00 | 89 | 1009.6 |
| 20260509105055 | 19 | 352 | 0.0 | 4.8 | 0.00 | 0.38 | 0.00 | 89 | 1009.3 |
| 20260509104559 | 19 | 352 | 0.0 | 4.8 | 0.00 | 0.38 | 0.00 | 89 | 1009.2 |
| 20260509104055 | 20 | 0 | 0.0 | 4.8 | 0.00 | 0.38 | 0.00 | 89 | 1009.2 |
| 20260509103556 | 20 | 352 | 0.0 | 4.8 | 0.00 | 0.38 | 0.00 | 89 | 1009.1 |
| 20260509103104 | 20 | 0 | 1.6 | 4.8 | 0.00 | 0.38 | 0.00 | 89 | 1009.1 |
| 20260509102554 | 20 | 360 | 0.0 | 1.6 | 0.00 | 0.38 | 0.00 | 88 | 1009.2 |
| 20260509102054 | 20 | 0 | 0.0 | 1.6 | 0.00 | 0.38 | 0.00 | 88 | 1009.3 |
| 20260509101620 | 20 | 0 | 0.0 | 1.6 | 0.00 | 0.38 | 0.00 | 88 | 1009.3 |
| 20260509101055 | 20 | 0 | 0.0 | 1.6 | 0.00 | 0.38 | 0.00 | 88 | 1009.3 |
| 20260509100555 | 20 | 0 | 0.0 | 3.2 | 0.00 | 0.38 | 0.00 | 88 | 1009.2 |
| 20260509100058 | 20 | 0 | 0.0 | 3.2 | 0.00 | 0.38 | 0.00 | 88 | 1009.0 |
| 20260509095554 | 20 | 80 | 0.0 | 3.2 | 0.00 | 0.38 | 0.00 | 88 | 1008.9 |
| 20260509095054 | 20 | 0 | 0.0 | 4.8 | 0.00 | 0.38 | 0.00 | 88 | 1008.8 |
| 20260509094605 | 20 | 0 | 0.0 | 6.4 | 0.00 | 0.38 | 0.00 | 88 | 1008.6 |
| 20260509094055 | 20 | 0 | 0.0 | 12.9 | 0.00 | 0.38 | 0.00 | 88 | 1008.5 |
| 20260509093557 | 20 | 69 | 4.8 | 12.9 | 0.00 | 0.38 | 0.00 | 88 | 1008.2 |
| 20260509093057 | 20 | 89 | 4.8 | 17.7 | 0.00 | 0.38 | 0.00 | 87 | 1008.2 |
| 20260509092555 | 20 | 87 | 6.4 | 17.7 | 0.00 | 0.38 | 0.00 | 87 | 1008.1 |
| 20260509092058 | 20 | 76 | 1.6 | 11.3 | 0.00 | 0.38 | 0.00 | 87 | 1008.1 |
| 20260509091606 | 20 | 76 | 3.2 | 19.3 | 0.00 | 0.38 | 0.00 | 87 | 1008.2 |
| 20260509091054 | 20 | 58 | 3.2 | 19.3 | 0.00 | 0.38 | 0.00 | 87 | 1008.1 |
| 20260509090557 | 20 | 60 | 6.4 | 17.7 | 0.00 | 0.38 | 0.00 | 86 | 1008.0 |
| 20260509090100 | 21 | 82 | 6.4 | 17.7 | 0.00 | 0.38 | 0.00 | 86 | 1008.0 |
| 20260509085557 | 21 | 74 | 8.0 | 17.7 | 0.00 | 0.38 | 0.00 | 86 | 1007.9 |
| 20260509085054 | 21 | 292 | 8.0 | 16.1 | 0.00 | 0.38 | 0.00 | 85 | 1007.9 |
| 20260509084601 | 20 | 123 | 3.2 | 16.1 | 0.00 | 0.38 | 0.00 | 85 | 1007.8 |
| 20260509084054 | 20 | 5 | 4.8 | 16.1 | 0.00 | 0.38 | 0.00 | 85 | 1007.7 |
| 20260509083553 | 20 | 331 | 3.2 | 11.3 | 0.00 | 0.38 | 0.00 | 85 | 1007.7 |
| 20260509083101 | 20 | 330 | 1.6 | 6.4 | 0.00 | 0.38 | 0.00 | 86 | 1007.7 |
| 20260509082553 | 21 | 0 | 1.6 | 14.5 | 0.00 | 0.38 | 0.00 | 86 | 1007.5 |
| 20260509082055 | 21 | 55 | 0.0 | 14.5 | 0.00 | 0.38 | 0.00 | 86 | 1007.6 |
| 20260509081555 | 20 | 340 | 4.8 | 14.5 | 0.00 | 0.38 | 0.00 | 86 | 1008.0 |
| 20260509081055 | 20 | 360 | 0.0 | 12.9 | 0.00 | 0.38 | 0.00 | 87 | 1008.1 |
| 20260509080558 | 20 | 0 | 1.6 | 12.9 | 0.00 | 0.38 | 0.00 | 87 | 1006.7 |
| 20260509080055 | 20 | 191 | 3.2 | 19.3 | 0.00 | 0.38 | 0.00 | 87 | 1006.7 |
| 20260509075554 | 20 | 360 | 3.2 | 24.1 | 0.00 | 0.38 | 0.00 | 87 | 1006.7 |
| 20260509075054 | 21 | 360 | 8.0 | 24.1 | 0.00 | 0.38 | 0.00 | 88 | 1006.7 |
| 20260509074555 | 21 | 178 | 9.7 | 24.1 | 0.00 | 0.38 | 0.00 | 88 | 1006.9 |
| 20260509074056 | 20 | 360 | 11.3 | 24.1 | 0.00 | 0.38 | 0.00 | 88 | 1007.3 |
| 20260509073554 | 20 | 360 | 8.0 | 20.9 | 0.00 | 0.38 | 0.00 | 89 | 1007.6 |
| 20260509073055 | 20 | 360 | 8.0 | 20.9 | 0.00 | 0.38 | 0.00 | 89 | 1008.1 |
| 20260509072554 | 20 | 360 | 4.8 | 17.7 | 0.00 | 0.38 | 0.00 | 89 | 1008.2 |
| 20260509072053 | 20 | 360 | 6.4 | 19.3 | 0.00 | 0.38 | 0.00 | 89 | 1008.4 |
| 20260509071556 | 20 | 360 | 6.4 | 19.3 | 0.00 | 0.38 | 0.00 | 89 | 1008.8 |
| 20260509071054 | 20 | 360 | 4.8 | 19.3 | 0.00 | 0.38 | 0.00 | 88 | 1008.8 |
| 20260509070554 | 20 | 360 | 4.8 | 17.7 | 0.00 | 0.38 | 0.00 | 89 | 1008.9 |
| 20260509070054 | 20 | 360 | 4.8 | 17.7 | 0.00 | 0.38 | 0.00 | 88 | 1008.9 |
| 20260509065556 | 20 | 360 | 4.8 | 17.7 | 0.00 | 0.38 | 0.00 | 88 | 1009.1 |
| 20260509065054 | 20 | 360 | 4.8 | 16.1 | 0.00 | 0.38 | 0.00 | 88 | 1009.4 |
| 20260509064555 | 20 | 360 | 4.8 | 16.1 | 0.00 | 0.38 | 0.00 | 88 | 1009.4 |
| 20260509064054 | 20 | 360 | 3.2 | 12.9 | 0.00 | 0.38 | 0.00 | 88 | 1009.4 |
| 20260509063554 | 20 | 360 | 3.2 | 12.9 | 0.00 | 0.38 | 0.00 | 87 | 1009.6 |
| 20260509063052 | 20 | 360 | 1.6 | 8.0 | 0.00 | 0.38 | 0.00 | 87 | 1009.8 |
| 20260509062554 | 20 | 360 | 3.2 | 8.0 | 0.00 | 0.38 | 0.00 | 87 | 1009.9 |
| 20260509062054 | 20 | 360 | 1.6 | 8.0 | 0.00 | 0.38 | 0.00 | 86 | 1010.3 |
| 20260509061552 | 20 | 208 | 0.0 | 4.8 | 0.00 | 0.38 | 0.00 | 86 | 1010.8 |
| 20260509061054 | 20 | 360 | 1.6 | 4.8 | 0.00 | 0.38 | 0.00 | 86 | 1010.8 |
| 20260509060553 | 20 | 222 | 0.0 | 4.8 | 0.00 | 0.38 | 0.00 | 85 | 1010.5 |
| 20260509060106 | 20 | 0 | 1.6 | 4.8 | 0.00 | 0.38 | 0.00 | 85 | 1010.7 |
| 20260509055554 | 20 | 360 | 0.0 | 4.8 | 0.00 | 0.38 | 0.00 | 85 | 1010.4 |
| 20260509055055 | 20 | 0 | 0.0 | 3.2 | 0.00 | 0.38 | 0.00 | 85 | 1010.6 |
| 20260509054553 | 20 | 0 | 0.0 | 4.8 | 0.00 | 0.38 | 0.00 | 84 | 1010.6 |
| 20260509054055 | 20 | 0 | 0.0 | 4.8 | 0.00 | 0.38 | 0.00 | 84 | 1010.4 |
| 20260509053554 | 20 | 174 | 0.0 | 6.4 | 0.00 | 0.38 | 0.00 | 84 | 1010.4 |
| 20260509053119 | 20 | 0 | 0.0 | 8.0 | 0.00 | 0.38 | 0.00 | 84 | 1010.4 |
| 20260509052558 | 20 | 0 | 1.6 | 8.0 | 0.00 | 0.38 | 0.00 | 84 | 1010.2 |
| 20260509052055 | 20 | 178 | 1.6 | 6.4 | 0.00 | 0.38 | 0.00 | 84 | 1010.3 |
| 20260509051555 | 20 | 0 | 1.6 | 6.4 | 0.00 | 0.38 | 0.00 | 83 | 1010.4 |
| 20260509051054 | 20 | 0 | 1.6 | 6.4 | 0.00 | 0.38 | 0.00 | 83 | 1010.3 |
| 20260509050554 | 20 | 236 | 1.6 | 6.4 | 0.00 | 0.38 | 0.00 | 83 | 1010.9 |
| 20260509050057 | 21 | 0 | 0.0 | 4.8 | 0.00 | 0.38 | 0.00 | 83 | 1011.1 |
| 20260509045556 | 21 | 0 | 0.0 | 6.4 | 0.00 | 0.38 | 0.38 | 83 | 1011.4 |
| 20260509045054 | 21 | 0 | 1.6 | 8.0 | 0.00 | 0.38 | 0.38 | 83 | 1011.6 |
| 20260509044649 | 21 | 22 | 3.2 | 16.1 | 0.00 | 0.38 | 0.38 | 83 | 1012.2 |
| 20260509044054 | 21 | 0 | 3.2 | 16.1 | 0.00 | 0.38 | 0.38 | 83 | 1012.0 |
| 20260509043554 | 21 | 349 | 6.4 | 16.1 | 0.00 | 0.38 | 0.38 | 83 | 1012.2 |
| 20260509043132 | 21 | 5 | 6.4 | 14.5 | 0.00 | 0.38 | 0.38 | 83 | 1012.3 |
| 20260509042555 | 21 | 167 | 0.0 | 1.6 | 0.00 | 0.38 | 0.38 | 83 | 1011.3 |
| 20260509042056 | 21 | 0 | 0.0 | 4.8 | 0.00 | 0.38 | 0.38 | 83 | 1010.5 |
| 20260509041555 | 21 | 0 | 0.0 | 6.4 | 0.00 | 0.38 | 0.38 | 83 | 1010.3 |
| 20260509041055 | 21 | 0 | 0.0 | 6.4 | 0.00 | 0.38 | 0.38 | 83 | 1010.5 |
| 20260509040556 | 21 | 170 | 0.0 | 4.8 | 0.00 | 0.38 | 0.38 | 83 | 1010.4 |
| 20260509040054 | 21 | 0 | 0.0 | 12.9 | 0.00 | 0.38 | 0.38 | 83 | 1010.2 |
| 20260509035558 | 21 | 181 | 0.0 | 12.9 | 0.00 | 0.38 | 0.38 | 82 | 1009.9 |
| 20260509035054 | 21 | 184 | 0.0 | 4.8 | 0.00 | 0.38 | 0.38 | 82 | 1009.7 |
| 20260509034553 | 21 | 209 | 0.0 | 4.8 | 0.00 | 0.38 | 0.38 | 82 | 1009.5 |
| 20260509034055 | 21 | 0 | 0.0 | 4.8 | 0.00 | 0.38 | 0.38 | 82 | 1009.4 |
| 20260509033558 | 21 | 0 | 1.6 | 4.8 | 0.00 | 0.38 | 0.38 | 81 | 1009.4 |
| 20260509033054 | 21 | 196 | 0.0 | 8.0 | 0.00 | 0.38 | 0.38 | 81 | 1009.5 |
| 20260509032554 | 21 | 0 | 0.0 | 8.0 | 0.00 | 0.38 | 0.38 | 81 | 1009.4 |
| 20260509032053 | 21 | 0 | 0.0 | 8.0 | 0.00 | 0.38 | 0.38 | 81 | 1009.5 |
| 20260509031602 | 21 | 163 | 0.0 | 4.8 | 0.00 | 0.38 | 0.38 | 81 | 1009.6 |
| 20260509031054 | 21 | 0 | 0.0 | 6.4 | 0.00 | 0.38 | 0.38 | 81 | 1009.7 |
| 20260509030555 | 21 | 88 | 0.0 | 6.4 | 0.00 | 0.38 | 0.38 | 81 | 1010.0 |
| 20260509030112 | 21 | 74 | 0.0 | 6.4 | 0.00 | 0.38 | 0.38 | 81 | 1010.4 |
| 20260509025554 | 21 | 71 | 1.6 | 6.4 | 0.00 | 0.38 | 0.38 | 81 | 1010.6 |
| 20260509025056 | 21 | 70 | 1.6 | 8.0 | 0.00 | 0.38 | 0.38 | 81 | 1010.7 |
| 20260509024554 | 21 | 87 | 1.6 | 8.0 | 0.00 | 0.38 | 0.38 | 81 | 1010.7 |
| 20260509024054 | 21 | 77 | 1.6 | 6.4 | 0.00 | 0.38 | 0.38 | 81 | 1010.4 |
| 20260509023556 | 21 | 0 | 1.6 | 6.4 | 0.00 | 0.38 | 0.38 | 81 | 1010.1 |
| 20260509023058 | 21 | 92 | 1.6 | 6.4 | 0.00 | 0.38 | 0.38 | 80 | 1009.8 |
| 20260509022554 | 21 | 94 | 0.0 | 6.4 | 0.00 | 0.38 | 0.38 | 80 | 1009.6 |
| 20260509022058 | 21 | 185 | 0.0 | 3.2 | 0.00 | 0.38 | 0.38 | 80 | 1009.1 |
| 20260509021554 | 21 | 186 | 0.0 | 8.0 | 0.00 | 0.38 | 0.38 | 79 | 1008.9 |
| 20260509021056 | 21 | 0 | 0.0 | 8.0 | 0.00 | 0.38 | 0.38 | 79 | 1008.6 |
| 20260509020554 | 21 | 0 | 0.0 | 8.0 | 0.00 | 0.38 | 0.38 | 78 | 1008.3 |
| 20260509020105 | 21 | 0 | 0.0 | 8.0 | 0.00 | 0.38 | 0.38 | 78 | 1008.3 |
| 20260509015555 | 22 | 210 | 0.0 | 4.8 | 0.00 | 0.38 | 0.38 | 78 | 1008.2 |
| 20260509015055 | 22 | 0 | 0.0 | 6.4 | 0.00 | 0.38 | 0.38 | 77 | 1008.1 |
| 20260509014555 | 22 | 0 | 0.0 | 8.0 | 0.00 | 0.38 | 0.38 | 77 | 1008.2 |
| 20260509014054 | 22 | 200 | 0.0 | 8.0 | 0.00 | 0.38 | 0.38 | 77 | 1008.2 |
| 20260509013554 | 22 | 0 | 1.6 | 11.3 | 0.00 | 0.38 | 0.38 | 76 | 1008.0 |
| 20260509013059 | 22 | 0 | 0.0 | 11.3 | 0.00 | 0.38 | 0.38 | 76 | 1008.0 |
| 20260509012554 | 22 | 174 | 1.6 | 11.3 | 0.00 | 0.38 | 0.38 | 75 | 1008.1 |
| 20260509012054 | 23 | 181 | 1.6 | 11.3 | 0.00 | 0.38 | 0.38 | 74 | 1008.2 |
| 20260509011558 | 23 | 180 | 3.2 | 11.3 | 0.00 | 0.38 | 0.38 | 74 | 1008.3 |
| 20260509011055 | 23 | 206 | 1.6 | 11.3 | 0.00 | 0.38 | 0.38 | 73 | 1008.4 |
| 20260509010554 | 23 | 0 | 0.0 | 11.3 | 0.00 | 0.38 | 0.38 | 73 | 1008.6 |
| 20260509010054 | 23 | 0 | 1.6 | 9.7 | 0.00 | 0.38 | 0.38 | 73 | 1008.7 |
| 20260509005554 | 23 | 192 | 0.0 | 9.7 | 0.00 | 0.38 | 0.38 | 72 | 1008.8 |
| 20260509005054 | 23 | 187 | 0.0 | 8.0 | 0.00 | 0.38 | 0.38 | 72 | 1008.8 |
| 20260509004600 | 23 | 0 | 1.6 | 8.0 | 0.00 | 0.38 | 0.38 | 71 | 1008.7 |
| 20260509004057 | 23 | 190 | 1.6 | 8.0 | 0.00 | 0.38 | 0.38 | 71 | 1008.7 |
| 20260509003555 | 24 | 0 | 1.6 | 16.1 | 0.00 | 0.38 | 0.38 | 71 | 1008.5 |
| 20260509003059 | 24 | 199 | 3.2 | 16.1 | 0.00 | 0.38 | 0.38 | 70 | 1008.3 |
| 20260509002554 | 24 | 194 | 3.2 | 14.5 | 0.00 | 0.38 | 0.38 | 70 | 1008.3 |
| 20260509002054 | 25 | 194 | 1.6 | 16.1 | 0.00 | 0.38 | 0.38 | 70 | 1008.3 |
| 20260509001600 | 25 | 216 | 3.2 | 16.1 | 0.00 | 0.38 | 0.38 | 69 | 1008.2 |
| 20260509001054 | 25 | 175 | 3.2 | 16.1 | 0.00 | 0.38 | 0.38 | 69 | 1008.2 |
| 20260509000554 | 25 | 186 | 4.8 | 14.5 | 0.00 | 0.38 | 0.38 | 69 | 1008.1 |
| 20260509000107 | 25 | 171 | 3.2 | 14.5 | 0.00 | 0.38 | 0.38 | 68 | 1008.1 |
| 20260508235554 | 25 | 136 | 3.2 | 14.5 | 0.00 | 0.38 | 0.38 | 68 | 1008.0 |
| 20260508235054 | 25 | 211 | 1.6 | 11.3 | 0.00 | 0.38 | 0.38 | 67 | 1008.1 |
| 20260508234557 | 25 | 182 | 1.6 | 11.3 | 0.00 | 0.38 | 0.38 | 66 | 1008.1 |
| 20260508234100 | 25 | 197 | 3.2 | 12.9 | 0.00 | 0.38 | 0.38 | 66 | 1008.2 |
| 20260508233555 | 25 | 175 | 3.2 | 12.9 | 0.00 | 0.38 | 0.38 | 65 | 1008.2 |
| 20260508233054 | 26 | 168 | 3.2 | 16.1 | 0.00 | 0.38 | 0.38 | 65 | 1008.3 |
| 20260508232556 | 26 | 173 | 1.6 | 17.7 | 0.00 | 0.38 | 0.38 | 64 | 1008.3 |
| 20260508232054 | 26 | 195 | 4.8 | 17.7 | 0.00 | 0.38 | 0.38 | 64 | 1008.3 |
| 20260508231559 | 26 | 193 | 3.2 | 14.5 | 0.00 | 0.38 | 0.38 | 64 | 1008.3 |
| 20260508231055 | 26 | 209 | 1.6 | 12.9 | 0.00 | 0.38 | 0.38 | 64 | 1008.3 |
| 20260508230559 | 26 | 171 | 1.6 | 14.5 | 0.00 | 0.38 | 0.38 | 64 | 1008.4 |
| 20260508230058 | 26 | 200 | 4.8 | 14.5 | 0.00 | 0.38 | 0.38 | 63 | 1008.3 |
| 20260508225555 | 26 | 230 | 3.2 | 14.5 | 0.00 | 0.38 | 0.38 | 63 | 1008.3 |
| 20260508225058 | 26 | 80 | 3.2 | 16.1 | 0.00 | 0.38 | 0.38 | 63 | 1008.3 |
| 20260508224635 | 26 | 205 | 4.8 | 16.1 | 0.00 | 0.38 | 0.38 | 63 | 1008.4 |
| 20260508224055 | 26 | 223 | 3.2 | 17.7 | 0.00 | 0.38 | 0.38 | 63 | 1008.3 |
| 20260508223555 | 26 | 181 | 3.2 | 17.7 | 0.00 | 0.38 | 0.38 | 64 | 1008.3 |
| 20260508223055 | 26 | 200 | 3.2 | 16.1 | 0.00 | 0.38 | 0.38 | 64 | 1008.3 |
| 20260508222558 | 26 | 33 | 1.6 | 16.1 | 0.00 | 0.38 | 0.38 | 64 | 1008.5 |
| 20260508222055 | 26 | 172 | 3.2 | 16.1 | 0.00 | 0.38 | 0.38 | 65 | 1008.5 |
| 20260508221555 | 26 | 182 | 6.4 | 16.1 | 0.00 | 0.38 | 0.38 | 63 | 1008.5 |
| 20260508221054 | 26 | 152 | 4.8 | 17.7 | 0.00 | 0.38 | 0.38 | 62 | 1008.6 |
| 20260508220554 | 27 | 199 | 6.4 | 17.7 | 0.00 | 0.38 | 0.38 | 62 | 1008.7 |
| 20260508220058 | 27 | 216 | 3.2 | 12.9 | 0.00 | 0.38 | 0.38 | 63 | 1008.6 |
| 20260508215554 | 27 | 157 | 1.6 | 12.9 | 0.00 | 0.38 | 0.38 | 62 | 1008.6 |
| 20260508215054 | 27 | 209 | 1.6 | 12.9 | 0.00 | 0.38 | 0.38 | 62 | 1008.6 |
| 20260508214559 | 27 | 182 | 3.2 | 12.9 | 0.00 | 0.38 | 0.38 | 62 | 1008.7 |
| 20260508214055 | 27 | 111 | 3.2 | 12.9 | 0.00 | 0.38 | 0.38 | 62 | 1008.7 |
| 20260508213554 | 27 | 205 | 3.2 | 17.7 | 0.00 | 0.38 | 0.38 | 61 | 1008.7 |
| 20260508213100 | 27 | 178 | 3.2 | 17.7 | 0.00 | 0.38 | 0.38 | 62 | 1008.8 |
| 20260508212554 | 27 | 205 | 4.8 | 16.1 | 0.00 | 0.38 | 0.38 | 60 | 1008.8 |
| 20260508212053 | 27 | 157 | 1.6 | 8.0 | 0.00 | 0.38 | 0.38 | 61 | 1008.9 |
| 20260508211602 | 27 | 188 | 1.6 | 9.7 | 0.00 | 0.38 | 0.38 | 62 | 1008.8 |
| 20260508211054 | 27 | 0 | 1.6 | 11.3 | 0.00 | 0.38 | 0.38 | 62 | 1008.8 |
| 20260508210554 | 27 | 152 | 1.6 | 11.3 | 0.00 | 0.38 | 0.38 | 61 | 1008.7 |
| 20260508210056 | 27 | 175 | 3.2 | 14.5 | 0.00 | 0.38 | 0.38 | 62 | 1008.7 |
| 20260508205558 | 27 | 335 | 1.6 | 17.7 | 0.00 | 0.38 | 0.38 | 61 | 1008.8 |
| 20260508205056 | 27 | 194 | 3.2 | 17.7 | 0.00 | 0.38 | 0.38 | 61 | 1009.0 |
| 20260508204557 | 27 | 151 | 3.2 | 19.3 | 0.00 | 0.38 | 0.38 | 60 | 1009.1 |
| 20260508204055 | 26 | 220 | 3.2 | 24.1 | 0.00 | 0.38 | 0.38 | 63 | 1009.3 |
| 20260508203554 | 26 | 184 | 9.7 | 24.1 | 0.00 | 0.38 | 0.38 | 61 | 1009.5 |
| 20260508203107 | 26 | 204 | 4.8 | 17.7 | 0.00 | 0.38 | 0.38 | 62 | 1009.6 |
| 20260508202557 | 26 | 76 | 6.4 | 19.3 | 0.00 | 0.38 | 0.38 | 63 | 1009.8 |
| 20260508202057 | 26 | 177 | 3.2 | 19.3 | 0.00 | 0.38 | 0.38 | 62 | 1009.9 |
| 20260508201604 | 26 | 187 | 6.4 | 17.7 | 0.00 | 0.38 | 0.38 | 61 | 1010.1 |
| 20260508201057 | 26 | 207 | 4.8 | 17.7 | 0.00 | 0.38 | 0.38 | 62 | 1010.1 |
| 20260508200555 | 27 | 204 | 4.8 | 16.1 | 0.00 | 0.38 | 0.38 | 59 | 1010.3 |
| 20260508200055 | 28 | 134 | 4.8 | 16.1 | 0.00 | 0.38 | 0.38 | 60 | 1010.3 |
| 20260508195600 | 28 | 186 | 3.2 | 17.7 | 0.00 | 0.38 | 0.38 | 58 | 1010.4 |
| 20260508195100 | 28 | 203 | 4.8 | 17.7 | 0.00 | 0.38 | 0.38 | 57 | 1010.3 |
| 20260508194559 | 28 | 213 | 3.2 | 20.9 | 0.00 | 0.38 | 0.38 | 59 | 1010.4 |
| 20260508194056 | 27 | 169 | 6.4 | 20.9 | 0.00 | 0.38 | 0.38 | 60 | 1010.4 |
| 20260508193559 | 27 | 227 | 3.2 | 9.7 | 0.00 | 0.38 | 0.38 | 64 | 1010.5 |
| 20260508193057 | 26 | 207 | 3.2 | 12.9 | 0.00 | 0.38 | 0.38 | 64 | 1010.6 |
| 20260508192554 | 26 | 168 | 4.8 | 12.9 | 0.00 | 0.38 | 0.38 | 62 | 1010.7 |
| 20260508192055 | 26 | 167 | 3.2 | 12.9 | 0.00 | 0.38 | 0.38 | 62 | 1010.7 |
| 20260508191557 | 26 | 223 | 4.8 | 16.1 | 0.00 | 0.38 | 0.38 | 62 | 1010.6 |
| 20260508191058 | 26 | 180 | 1.6 | 16.1 | 0.00 | 0.38 | 0.38 | 60 | 1010.6 |
| 20260508190554 | 27 | 217 | 3.2 | 12.9 | 0.00 | 0.38 | 0.38 | 59 | 1010.6 |
| 20260508190056 | 27 | 0 | 1.6 | 11.3 | 0.00 | 0.38 | 0.38 | 61 | 1010.6 |
| 20260508185554 | 27 | 134 | 4.8 | 11.3 | 0.00 | 0.38 | 0.38 | 59 | 1010.7 |
| 20260508185054 | 27 | 171 | 1.6 | 9.7 | 0.00 | 0.38 | 0.38 | 61 | 1010.8 |
| 20260508184556 | 27 | 191 | 1.6 | 14.5 | 0.00 | 0.38 | 0.38 | 62 | 1011.0 |
| 20260508184054 | 26 | 32 | 3.2 | 14.5 | 0.00 | 0.38 | 0.38 | 61 | 1011.1 |
| 20260508183554 | 26 | 205 | 3.2 | 11.3 | 0.00 | 0.38 | 0.38 | 63 | 1011.1 |
| 20260508183056 | 26 | 67 | 1.6 | 9.7 | 0.00 | 0.38 | 0.38 | 62 | 1011.1 |
| 20260508182553 | 27 | 167 | 1.6 | 11.3 | 0.00 | 0.38 | 0.38 | 60 | 1011.2 |
| 20260508182055 | 26 | 0 | 1.6 | 11.3 | 0.00 | 0.38 | 0.38 | 62 | 1011.2 |
| 20260508181558 | 27 | 182 | 1.6 | 11.3 | 0.00 | 0.38 | 0.38 | 61 | 1011.4 |
| 20260508181055 | 26 | 199 | 1.6 | 11.3 | 0.00 | 0.38 | 0.38 | 62 | 1011.5 |
| 20260508180555 | 26 | 190 | 1.6 | 12.9 | 0.00 | 0.38 | 0.38 | 64 | 1011.6 |
| 20260508180057 | 26 | 0 | 0.0 | 12.9 | 0.00 | 0.38 | 0.38 | 65 | 1011.7 |
| 20260508175554 | 26 | 82 | 1.6 | 6.4 | 0.00 | 0.38 | 0.38 | 66 | 1011.9 |
| 20260508175054 | 26 | 74 | 1.6 | 9.7 | 0.00 | 0.38 | 0.38 | 64 | 1011.9 |
| 20260508174559 | 26 | 275 | 1.6 | 9.7 | 0.00 | 0.38 | 0.38 | 65 | 1012.1 |
| 20260508174056 | 26 | 101 | 1.6 | 9.7 | 0.00 | 0.38 | 0.38 | 64 | 1012.2 |
| 20260508173554 | 25 | 161 | 1.6 | 11.3 | 0.00 | 0.38 | 0.38 | 64 | 1012.2 |
| 20260508173055 | 25 | 223 | 1.6 | 12.9 | 0.00 | 0.38 | 0.38 | 63 | 1012.3 |
| 20260508172554 | 25 | 207 | 3.2 | 12.9 | 0.00 | 0.38 | 0.38 | 65 | 1012.3 |
| 20260508172054 | 25 | 192 | 1.6 | 8.0 | 0.00 | 0.38 | 0.38 | 64 | 1012.4 |
| 20260508171553 | 25 | 200 | 1.6 | 9.7 | 0.00 | 0.38 | 0.38 | 62 | 1012.4 |
| 20260508171053 | 24 | 130 | 1.6 | 9.7 | 0.00 | 0.38 | 0.38 | 63 | 1012.5 |
| 20260508170553 | 24 | 188 | 1.6 | 6.4 | 0.00 | 0.38 | 0.38 | 65 | 1012.7 |
| 20260508170054 | 24 | 215 | 1.6 | 6.4 | 0.00 | 0.38 | 0.38 | 64 | 1012.7 |
| 20260508165555 | 23 | 238 | 1.6 | 9.7 | 0.00 | 0.38 | 0.38 | 67 | 1012.8 |
| 20260508165054 | 23 | 190 | 1.6 | 9.7 | 0.00 | 0.38 | 0.38 | 68 | 1013.0 |
| 20260508164555 | 22 | 164 | 1.6 | 9.7 | 0.00 | 0.38 | 0.38 | 68 | 1013.0 |
| 20260508164054 | 22 | 0 | 1.6 | 11.3 | 0.00 | 0.38 | 0.38 | 66 | 1013.0 |
| 20260508163554 | 22 | 157 | 3.2 | 11.3 | 0.00 | 0.38 | 0.38 | 64 | 1013.2 |
| 20260508163053 | 23 | 194 | 3.2 | 17.7 | 0.00 | 0.38 | 0.38 | 65 | 1013.4 |
| 20260508162554 | 23 | 213 | 3.2 | 19.3 | 0.00 | 0.38 | 0.38 | 67 | 1013.4 |
| 20260508162054 | 22 | 214 | 6.4 | 19.3 | 0.00 | 0.38 | 0.38 | 65 | 1013.5 |
| 20260508161557 | 22 | 217 | 1.6 | 12.9 | 0.00 | 0.38 | 0.38 | 66 | 1013.4 |
| 20260508161056 | 22 | 137 | 3.2 | 12.9 | 0.00 | 0.38 | 0.38 | 68 | 1013.4 |
| 20260508160555 | 22 | 200 | 1.6 | 12.9 | 0.00 | 0.38 | 0.38 | 67 | 1013.4 |
| 20260508160054 | 22 | 202 | 1.6 | 11.3 | 0.00 | 0.38 | 0.38 | 68 | 1013.5 |
| 20260508155555 | 21 | 175 | 3.2 | 16.1 | 0.00 | 0.38 | 0.38 | 68 | 1013.6 |
| 20260508155056 | 21 | 126 | 3.2 | 16.1 | 0.00 | 0.38 | 0.38 | 67 | 1013.7 |
| 20260508154609 | 22 | 183 | 3.2 | 12.9 | 0.00 | 0.38 | 0.38 | 68 | 1013.8 |
| 20260508154054 | 21 | 193 | 1.6 | 11.3 | 0.00 | 0.38 | 0.38 | 68 | 1013.8 |
| 20260508153554 | 21 | 119 | 1.6 | 11.3 | 0.00 | 0.38 | 0.38 | 70 | 1014.0 |
| 20260508153054 | 21 | 184 | 3.2 | 11.3 | 0.00 | 0.38 | 0.38 | 70 | 1013.9 |
| 20260508152554 | 21 | 163 | 0.0 | 8.0 | 0.00 | 0.38 | 0.38 | 71 | 1014.0 |
| 20260508152054 | 21 | 0 | 1.6 | 9.7 | 0.00 | 0.38 | 0.38 | 71 | 1014.1 |
| 20260508151555 | 21 | 203 | 3.2 | 9.7 | 0.00 | 0.38 | 0.38 | 74 | 1014.2 |
| 20260508151054 | 20 | 198 | 3.2 | 11.3 | 0.00 | 0.38 | 0.38 | 75 | 1014.2 |
| 20260508150555 | 20 | 0 | 1.6 | 11.3 | 0.00 | 0.38 | 0.38 | 74 | 1014.0 |
| 20260508150108 | 20 | 210 | 1.6 | 12.9 | 0.00 | 0.38 | 0.38 | 75 | 1014.3 |
| 20260508145554 | 20 | 191 | 1.6 | 12.9 | 0.00 | 0.38 | 0.38 | 73 | 1014.3 |
| 20260508145053 | 21 | 197 | 4.8 | 11.3 | 0.00 | 0.38 | 0.38 | 73 | 1014.6 |
| 20260508144553 | 21 | 169 | 1.6 | 6.4 | 0.00 | 0.38 | 0.38 | 77 | 1014.3 |
| 20260508144055 | 20 | 92 | 1.6 | 6.4 | 0.00 | 0.38 | 0.38 | 77 | 1014.4 |
| 20260508143555 | 20 | 192 | 1.6 | 9.7 | 0.00 | 0.38 | 0.38 | 81 | 1014.4 |
| 20260508143135 | 18 | 215 | 1.6 | 9.7 | 0.00 | 0.38 | 0.38 | 83 | 1014.2 |
| 20260508142554 | 18 | 202 | 1.6 | 8.0 | 0.00 | 0.38 | 0.38 | 85 | 1014.3 |
| 20260508142054 | 18 | 196 | 0.0 | 8.0 | 0.00 | 0.38 | 0.38 | 86 | 1014.2 |
| 20260508141607 | 18 | 0 | 0.0 | 8.0 | 0.00 | 0.38 | 0.38 | 88 | 1014.5 |
| 20260508141055 | 17 | 0 | 0.0 | 8.0 | 0.00 | 0.38 | 0.38 | 90 | 1014.4 |
| 20260508140554 | 17 | 0 | 1.6 | 8.0 | 0.00 | 0.38 | 0.38 | 89 | 1014.7 |
| 20260508140106 | 17 | 194 | 0.0 | 6.4 | 0.00 | 0.38 | 0.38 | 89 | 1014.7 |